Regional Weather Roundup
Issued by NWS

Home | Current Version | Previous Version | Text Only | Print | Product List | Glossary On
Versions: 1 2 3 4 5 6 7 8 9 10 11 12 13 14 15 16 17 18 19 20 21 22 23 24 25 26 27 28 29 30 31 32 33 34 35 36 37 38 39 40 41 42 43 44 45 46 47 48 49 50
000
ASUS43 KTOP 200408
RWRKS

WEATHER ROUNDUP FOR KANSAS
NATIONAL WEATHER SERVICE GOODLAND KS
1100 PM CDT FRI SEP 19 2014

NOTE:  "FAIR" INDICATES FEW OR NO CLOUDS BELOW 12,000 FEET WITH NO
SIGNIFICANT WEATHER AND/OR OBSTRUCTIONS TO VISIBILITY.

KSZ001>006-013>018-027>032-041>047-200500-
NORTHWEST KANSAS

CITY           SKY/WX    TMP DP  RH WIND       PRES   REMARKS
GOODLAND       CLEAR     69  60  73 S13       29.95R
HAYS           PTCLDY    72  59  64 S9        29.93R
HILL CITY      CLEAR     75  59  57 S8        29.91R
RUSSELL        PTCLDY    71  61  70 S10       29.92R
$$

KSZ061>065-074>080-084>089-200500-
SOUTHWEST KANSAS

CITY           SKY/WX    TMP DP  RH WIND       PRES   REMARKS
DODGE CITY     CLEAR     72  58  61 S9        29.97R
ELKHART          N/A     67  60  78 S10         N/A
GARDEN CITY    CLEAR     68  59  73 S5        29.97R
GREAT BEND     CLEAR     73  61  64 S12       29.95R
LIBERAL        CLEAR     72  57  60 S7        29.99S
PRATT          CLEAR     73  59  60 S12       29.98R
$$

KSZ066>073-081>083-090>101-200500-
SOUTHEAST KANSAS

CITY           SKY/WX    TMP DP  RH WIND       PRES   REMARKS
CHANUTE        CLEAR     66  66 100 SE5       29.99R FOG
COFFEYVILLE    CLEAR     68  66  93 S3        29.98S FOG
HUTCHINSON     PTCLDY    75  63  66 S12       29.95R
MEDICINE LODGE   N/A     75  62  64 S9        29.95R
NEWTON         PTCLDY    72  63  73 S13       29.98S
PARSONS        CLEAR     64  64 100 CALM      30.00R FOG
WICHITA INTL   PTCLDY    73  68  84 S12       29.95S
WICHITA JABRA  CLEAR     71  68  90 S12       29.96R
WICHITA MCCONL CLEAR     72  72 100 SE12      29.97R
WINFIELD       CLEAR     71  68  90 SE8       29.98R
$$

KSZ007>012-019>026-033>040-048>060-102>105-200500-
NORTHEAST KANSAS

CITY           SKY/WX    TMP DP  RH WIND       PRES   REMARKS
CONCORDIA      PTCLDY    74  66  76 S14       29.91R
EMPORIA        PTCLDY    68  67  96 S16       29.95S FOG
LAWRENCE       CLEAR     71  66  84 S8        29.94S HAZE
MANHATTAN      PTCLDY    73  69  87 S9        29.92R
MARYSVILLE     PTCLDY    72  68  88 S12       29.90S
OLATHE IND     CLEAR     68  66  93 S8        29.97R
OLATHE EXE     CLEAR     68  66  93 S6        29.96S
SALINA         CLEAR     76  65  68 S10       29.92R
TOPEKA BILLARD PTCLDY    72  69  90 S10       29.95R
TOPEKA FORBES  PTCLDY    70  67  90 S10       29.95R FOG
$$


USA.gov is the U.S. government's official web portal to all federal, state and local government web resources and services.